Weather observations for the past three days for
Cocoa - Patrick Air Force Base
Imperial (Metric)
Date Time (edt) Wind (mph) Vis. (mi.) Weather Sky Cond. Temperature (ºF) Relative Humidity Wind Chill (°F) Heat Index (°F) Pressure Precipitation (in)
Air Dwpt 6 hour altimeter (in) sea level (mb) 1 hr 3 hr 6 hr
Max. Min.
21 09:55 E 6 10.00 Fair CLR 0 0 0% 30.08 0.0
21 08:55 Calm 10.00 A Few Clouds FEW013 0 0 0% 30.08 0.0
21 07:55 Calm 10.00 Fair CLR 0 0 0% 30.06 0.0
21 06:55 Calm 6.00 Fair with Haze CLR 0 0 0% 30.06 0.0
21 05:55 Calm 10.00 Fair CLR 0 0 0% 30.03 0.0
21 04:55 SE 3 8.00 Fair CLR 0 0 0% 30.03 0.0
21 03:55 SE 6 10.00 Fair CLR 0 0 0% 30.05 0.0
21 02:55 E 6 8.00 A Few Clouds FEW032 0 0 0% 30.06 0.0
21 01:55 Calm 6.00 Fair with Haze CLR 0 0 0% 30.1 0.0
21 00:55 Calm 10.00 Mostly Cloudy BKN029 0 0 0% 30.12 0.0
20 23:55 S 7 10.00 Fair CLR 0 0 0% 30.12 0.0
20 22:55 S 9 10.00 Overcast OVC080 0 0 0% 30.11 0.0
20 21:55 S 10 10.00 A Few Clouds FEW180 0 0 0% 30.11 0.0
20 20:55 S 10 10.00 Fair CLR 0 0 0% 30.1 0.0
20 18:55 S 13 10.00 Fair CLR 0 0 0% 30.05 0.0
20 17:55 S 15 10.00 Fair CLR 0 0 0% 30.06 0.0
20 16:55 SE 16 10.00 Fair CLR 0 0 0% 30.07 0.0
20 15:55 SE 15 10.00 Fair CLR 0 0 0% 30.08 0.0
20 14:55 SE 14 10.00 Fair CLR 0 0 0% 30.09 0.0
20 13:55 SE 12 10.00 Partly Cloudy FEW120 FEW160 SCT210 0 0 0% 30.11 0.0
20 12:55 SE 12 10.00 Partly Cloudy FEW140 FEW190 SCT210 0 0 0% 30.12 0.0
20 11:55 E 10 10.00 A Few Clouds FEW190 0 0 0% 30.12 0.0
20 10:55 SE 7 10.00 Fair CLR 0 0 0% 30.11 0.0
20 09:55 SE 8 10.00 Fair CLR 89.6 78.8 71% 105 30.11 0.0
20 08:55 SE 5 10.00 Fair CLR 86 78.8 79% 99 30.09 0.0
20 07:55 S 7 10.00 Fair CLR 78.8 77 94% 83 30.09 0.0
20 06:55 Calm 10.00 A Few Clouds FEW020 0 0 0% 30.07 0.0
20 05:55 S 7 10.00 Fair CLR 0 0 0% 30.07 0.0
20 04:55 S 6 10.00 Fair CLR 0 0 0% 30.07 0.0
20 03:55 S 9 10.00 Fair CLR 0 0 0% 30.06 0.0
20 02:55 S 9 10.00 Fair CLR 0 0 0% 30.07 0.0
20 01:55 SE 8 10.00 Fair CLR 0 0 0% 30.09 0.0
20 00:55 SE 5 10.00 Fair CLR 0 0 0% 30.1 0.0
19 23:55 SE 5 10.00 A Few Clouds FEW180 0 0 0% 30.11 0.0
19 22:55 S 7 10.00 Fair CLR 0 0 0% 30.1 0.0
19 21:55 S 6 10.00 Fair CLR 0 0 0% 30.09 0.0
19 20:55 SE 6 10.00 A Few Clouds FEW180 0 0 0% 30.08 0.0
19 19:55 S 10 10.00 Fair CLR 0 0 0% 30.05 0.0
19 18:55 SE 10 10.00 Fair CLR 84.2 75.2 74% 92 30.03 0.0
19 17:55 S 12 10.00 Fair CLR 89.6 78.8 71% 105 30.03 0.0
19 16:55 SE 14 10.00 Fair CLR 86 75.2 70% 95 30.03 0.0
19 15:55 SE 13 10.00 A Few Clouds FEW090 86 78.8 79% 99 30.06 0.0
19 15:06 SE 8 10.00 A Few Clouds FEW200 91.4 78.8 67% 108 30.06 0.0
19 14:55 SE 10 10.00 Partly Cloudy SCT200 91.4 80.6 71% 111 30.07 0.0
19 13:55 E 9 10.00 Thunderstorm in Vicinity FEW140 SCT210 0 0 0% 30.08 0.0
19 11:55 E 8 10.00 Fair CLR 0 0 0% 30.09 0.0
19 10:55 E 7 10.00 Fair CLR 0 0 0% 30.09 0.0
19 09:55 SE 5 10.00 Partly Cloudy FEW019 SCT220 0 0 0% 30.08 0.0
19 08:55 E 7 10.00 A Few Clouds FEW016 FEW210 0 0 0% 30.07 0.0
19 07:55 S 6 10.00 Fair CLR 0 0 0% 30.07 0.0
19 06:55 S 5 10.00 Fair CLR 0 0 0% 30.05 0.0
19 05:55 S 5 10.00 Fair CLR 0 0 0% 30.03 0.0
19 04:55 SE 5 10.00 A Few Clouds FEW170 0 0 0% 30.02 0.0
19 03:55 SE 3 6.00 Mostly Cloudy with Haze BKN160 0 0 0% 30.04 0.0
19 02:55 Calm 10.00 Fair CLR 0 0 0% 30.04 0.0
19 01:55 W 6 10.00 Fair CLR 0 0 0% 30.06 0.0
19 00:55 S 7 10.00 Fair CLR 0 0 0% 30.06 0.0
18 23:55 S 7 10.00 Fair CLR 0 0 0% 30.06 0.0
18 22:55 S 8 10.00 Fair CLR 0 0 0% 30.06 0.0
18 21:55 Calm 10.00 Fair CLR 82.4 78.8 89% 92 30.05 1017.1
18 20:55 SE 7 10.00 Fair CLR 84.2 77 79% 94 30.03 1016.8
18 19:55 S 9 10.00 Fair CLR 0 0 0% 30.02 0.0
18 18:55 S 10 10.00 Fair CLR 84.2 78.8 84% 96 30.02 1016.7
18 17:55 S 12 10.00 A Few Clouds FEW210 82.4 77 84% 91 30.02 0.0
18 17:23 S 9 10.00 A Few Clouds FEW160 82.4 77 84% 91 30.01 1016.8
18 17:17 SE 9 10.00 A Few Clouds FEW007 FEW160 82.4 77 84% 91 30 0.0
18 16:55 S 13 10.00 Light Drizzle SCT012 0 0 0% 30.02 0.0
18 15:55 SE 12 10.00 Thunderstorm in Vicinity FEW055 89.6 80.6 75% 108 30.04 0.0
18 14:55 SE 14 10.00 Thunderstorm in Vicinity FEW150 89.6 80.6 75% 108 30.04 0.0
18 13:55 E 12 10.00 A Few Clouds FEW120 FEW180 FEW210 89.6 80.6 75% 108 30.05 0.0
18 12:55 E 10 10.00 A Few Clouds FEW190 91.4 80.6 71% 111 30.06 0.0
18 11:55 E 8 10.00 A Few Clouds FEW220 91.4 80.6 71% 111 30.07 0.0
18 10:55 E 7 10.00 A Few Clouds FEW025 91.4 78.8 67% 108 30.09 0.0
Date Time (edt) Wind (mph) Vis. (mi.) Weather Sky Cond. Air Dwpt Max. Min. Relative Humidity Wind Chill (°F) Heat Index (°F) altimeter (in) sea level (mb) 1 hr 3 hr 6 hr
6 hour
Temperature (ºF) Pressure Precipitation (in)